Location: Newark
(25.0000°N, 73.5000°E)
Time: 02:18:58
(UTC+00:00)

NOAA 15 - Pass Details

Date: 23 February 2020
Orbit: 797 x 813 km, 98.7° (Epoch: 06 April)

Event Time Altitude Azimuth Distance (km) Brightness Sun altitude
Rises 13:39:27 0° 160° (SSE) 3,313 7.7 -8.7°
Reaches altitude 10° 13:41:47 10° 158° (SSE) 2,387 6.9 -9.2°
Maximum altitude 13:47:01 68° 75° (ENE) 871 4.6 -10.4°
Drops below altitude 10° 13:52:18 10° 354° (N) 2,401 7.1 -11.6°
Sets 13:54:39 0° 352° (N) 3,336 7.9 -12.1°
